Regional Weather Roundup
Issued by NWS

Home | Current Version | Previous Version | Graphics & Text | Print | Product List | Glossary On
Versions: 1 2 3 4 5 6 7 8 9 10 11 12 13 14 15 16 17 18 19 20 21 22 23 24 25 26 27 28 29 30 31 32 33 34 35 36 37 38 39 40 41 42 43 44 45 46 47 48 49 50
000
ASUS43 KMPX 281601
RWRMN
WEATHER ROUNDUP FOR MINNESOTA
NATIONAL WEATHER SERVICE TWIN CITIES/CHANHASSEN MN
1000 AM CST SUN DEC 28 2014


NOTE: "FAIR" INDICATES FEW OR NO CLOUDS BELOW 12,000 FEET WITH NO
SIGNIFICANT WEATHER AND/OR OBSTRUCTIONS TO VISIBILITY. N/A MEANS
CURRENT SKY AND/OR WEATHER CONDITIONS ARE NOT AVAILABLE.

MNZ060>063-068>070-281700-
   Twin Cities Metro

CITY           SKY/WX    TMP DP  RH WIND       PRES   REMARKS
TWIN CITIES    PTSUNNY   12  10  92 CALM      30.16R
ST PAUL        PTSUNNY   13  11  92 CALM      30.18R
CRYSTAL        CLOUDY    13   9  84 CALM      30.15R
BLAINE         CLOUDY    16  10  79 CALM      30.15R
LAKEVILLE      SUNNY     14  10  85 CALM      30.14R
EDEN PRAIRIE   CLOUDY    10   7  87 CALM      30.15R
SOUTH ST PAUL  PTSUNNY   14   9  81 CALM      30.16R
LAKE ELMO      CLOUDY    12  10  92 CALM      30.16R
$$
MNZ001>005-007-008-013>017-022>024-027-028-281700-
   Northwest Minnesota

CITY           SKY/WX    TMP DP  RH WIND       PRES   REMARKS
BEMIDJI        CLOUDY    -2  -6  84 N5        30.20R WCI -12
HALLOCK        SUNNY     -9 -17  70 N8        30.32R WCI -26
ROSEAU         MOSUNNY   -8 -15  71 NW6       30.27R WCI -21
WARROAD        SUNNY     -9 -15  77 W5        30.25R WCI -21
THIEF RVR FALL SUNNY     -6  -9  84 N5        30.26R WCI -17
CROOKSTON      SUNNY     -8 -13  77 N8        30.32R WCI -23
FOSSTON        SUNNY     -2  -9  71 N8        30.24R HAZE    WCI -17
DETROIT LAKES  SUNNY      3   0  85 N7        30.21R WCI  -9
MOORHEAD       SUNNY      0  -4  85 N13       30.28R WCI -18
PARK RAPIDS    SUNNY      2  -5  72 N10       30.17R WCI -14
MAHNOMEN       FAIR      -2  -6  82 N8        30.22R WCI -17
$$
MNZ006-009>011-018-025>026-281700-
   North Central Minnesota

CITY           SKY/WX    TMP DP  RH WIND       PRES   REMARKS
BAUDETTE       SUNNY     -8 -15  71 NW10      30.23R WCI -26
FLAG ISLAND    SUNNY    -11 -18  70 NW9       30.24R WCI -29
INTL FALLS     SUNNY     -4 -10  75 W8        30.20R WCI -19
WASKISH        SUNNY     -2  -8  78 NW6       30.22R WCI -14
BIG FORK       MOSUNNY    0  -6  78 CALM      30.19R
LONGVILLE      MOSUNNY    1  -6  71 CALM      30.19R
GRAND RAPIDS   MOSUNNY    0  -6  78 N9        30.16R WCI -16
CRANE LAKE     MOSUNNY   -2  -9  71 NW6       30.21R WCI -14
ORR            MOSUNNY   -2  -8  78 NW8       30.15R WCI -17
COOK           SUNNY     -2  -8  78 W6        30.17R WCI -14
WALKER         FAIR      -1  -5  80 NW5       30.19R WCI -11
$$
MNZ012-019>021-037-281700-
   Northeast Minnesota

CITY           SKY/WX    TMP DP  RH WIND       PRES   REMARKS
DULUTH         MOSUNNY    7  -3  64 N13       30.11R WCI  -9
ELY            PTSUNNY    0  -8  71 NW8       30.13R WCI -15
HIBBING        PTSUNNY   -1  -8  72 N12       30.16R WCI -18
EVELETH        PTSUNNY    0  -6  78 N7        30.16R HAZE    WCI -13
DULUTH HARBOR  SUNNY     12   1  62 NW12      30.20R WCI  -2
TWO HARBORS    SUNNY     10   0  61 NW7G18    30.11R WCI   0
SILVER BAY     SUNNY     10  -2  56 NW8       30.10R WCI  -1
GRAND MARAIS     N/A      9  -3  58 VRB3      30.14R
G MARAIS ARPRT SUNNY      0  -8  71 NW12G20   30.01R WCI -18
$$
MNZ029>031-032-039>041-046>048-054>057-064-281700-
   West Central Minnesota

CITY           SKY/WX    TMP DP  RH WIND       PRES   REMARKS
FERGUS FALLS   CLOUDY     7  -2  66 N13       30.23R WCI  -9
WHEATON        PTSUNNY    9   5  85 N14       30.24R WCI  -8
MORRIS         PTSUNNY   19  16  86 N12       30.16R WCI   7
ALEXANDRIA     CLOUDY    18  12  77 N12       30.14R WCI   5
ELBOW LAKE     CLOUDY    14  10  84 N10       30.17R WCI   1
WADENA         MOSUNNY    9   3  78 N10       30.16R WCI  -6
GLENWOOD       CLOUDY    19  18  93 N8        30.14R WCI   9
APPLETON       PTSUNNY   19  18  93 N14       30.18R WCI   6
BENSON         CLOUDY    19  18  93 N7        30.16R WCI  10
ORTONVILLE     PTSUNNY   16  10  79 N12       30.18R WCI   3
MADISON        PTSUNNY   23  19  86 N13       30.18R WCI  11
WILLMAR        PTSUNNY   19  16  86 NW5       30.16R WCI  13
$$
MNZ033>034-036-042>043-049>051-058-059-281700-
   Central Minnesota

CITY           SKY/WX    TMP DP  RH WIND       PRES   REMARKS
ST CLOUD       CLOUDY    23  17  78 N9        30.15R WCI  13
SAUK CENTRE    CLOUDY    19  13  80 N8        30.15R WCI   8
PAYNESVILLE    CLOUDY    17  16  95 W6        30.15R WCI   8
AITKIN         MIX PCPN  14   5  67 NW6       30.15R WCI   5
PINE RIVER     SUNNY      7   1  78 N8        30.20R WCI  -6
BRAINERD       SUNNY     13   6  74 N10       30.16R WCI   0
STAPLES        MOSUNNY   10   5  79 N8        30.16R WCI  -1
LONG PRAIRIE   CLOUDY    18  10  73 N9        30.15R WCI   6
LITTLE FALLS   MOSUNNY   19  10  68 N6        30.16R WCI  11
LITCHFIELD     CLOUDY    19  19 100 NW5       30.15R WCI  13
BUFFALO        PTSUNNY   14  11  87 CALM      30.15S
MAPLE LAKE     CLOUDY    15  13  93 CALM      30.16R
$$
MNZ037-044-045-052-053-281700-
   East Central Minnesota

CITY           SKY/WX    TMP DP  RH WIND       PRES   REMARKS
PRINCETON      CLOUDY    21  18  86 CALM      30.14R
MORA           CLOUDY    19  10  68 N7        30.16R WCI  10
CAMBRIDGE      LGT SNOW  19  12  73 CALM      30.13R
RUSH CITY      CLOUDY    19  15  86 CALM      30.15R
MOOSE LAKE     PTSUNNY   14   7  73 N8        30.14R WCI   3
HINCKLEY       CLOUDY    19  10  68 CALM      30.15R
CLOQUET        SUNNY      9  -2  61 NW12      30.14R WCI  -6
MCGREGOR       SUNNY     12   5  73 N13       30.16R WCI  -3
$$
MNZ071>073-080-081-089-090-097-098-281700-
   Southwest Minnesota

CITY           SKY/WX    TMP DP  RH WIND       PRES   REMARKS
MONTEVIDEO     MOSUNNY   19  18  93 N5        30.18R WCI  13
GRANITE FALLS  CLOUDY    20  16  86 N8        30.18R WCI  10
CANBY          CLOUDY    20  18  92 N10       30.17R FOG     WCI   8
MARSHALL       PTSUNNY   16   9  73 NW9       30.16R WCI   4
REDWOOD FALLS  MOSUNNY   16  11  80 N3        30.16R
OLIVIA         CLOUDY    16  14  93 N6        30.15R FOG     WCI   7
PIPESTONE      SUNNY      9   5  85 CALM      30.10R FOG
WINDOM           N/A     12  10  92 CALM      30.12R
WORTHINGTON    SUNNY     14 -29  13 N7        30.12R WCI   4
JACKSON        SUNNY     16  12  86 CALM      30.12R
TRACY          SUNNY     14  11  87 NW7       30.14R WCI   4
SLAYTON        SUNNY     10   8  92 CALM      30.13R
$$
MNZ065>067-074>077-082>085-091>093-281700-
   South Central Minnesota

CITY           SKY/WX    TMP DP  RH WIND       PRES   REMARKS
MANKATO        SUNNY     10   5  79 CALM      30.15R
NEW ULM        CLOUDY    12  10  92 N3        30.15R FOG
ST JAMES       SUNNY     16  10  79 NW5       30.15R WCI   9
FAIRMONT       SUNNY     18   9  68 NW5       30.13R WCI  11
GLENCOE        CLOUDY    17  16  96 NW3       30.15R FOG
FARIBAULT      SUNNY     10   9  92 CALM      30.14S
OWATONNA       SUNNY      9   7  92 CALM      30.13R
ALBERT LEA     SUNNY     16  12  86 CALM      30.13R
$$
MNZ078>079-086>088-094>096-281700-
   Southeast Minnesota

CITY           SKY/WX    TMP DP  RH WIND       PRES   REMARKS
ROCHESTER      SUNNY      9   6  88 SW8       30.14R WCI  -3
RED WING       SUNNY     12  10  92 CALM      30.16R
STANTON        SUNNY     11   7  85 S3        30.15R
DODGE CENTER   SUNNY     10   7  85 SW6       30.12R WCI   1
WINONA         SUNNY     12  10  92 CALM      30.19R
AUSTIN         SUNNY      9   7  92 S3        30.14R
PRESTON        SUNNY     13   9  83 SW3       30.14R
$$
ABBREVIATIONS USED IN REMARKS
   TC - TEMPERATURES IN CELSIUS
  WCI - WIND CHILL INDEX
   HX - HEAT INDEX
  VSB - VISIBILITY
$$



USA.gov is the U.S. government's official web portal to all federal, state and local government web resources and services.